• In Romania
  • List of Countries
  • For 7 days
  • Water Temperature
  • Satellite Maps
  • Weather Map
  • Weather Widgets
  • user-avatar
    Login

    Hourly Weather Yulara

    Today, 20 September, Thursday

    Time Temperature Precipitation Wind Pressure Humidity
    00:00 +13°C° 0 mm 5 mps 722 mmHg 27%
    01:00 +12°C° 0 mm 5 mps 721 mmHg 30%
    02:00 +12°C° 0 mm 5 mps 721 mmHg 32%
    03:00 +10°C° 0 mm 5 mps 721 mmHg 34%
    04:00 +10°C° 0 mm 5 mps 722 mmHg 37%
    05:00 +9°C° 0 mm 5 mps 722 mmHg 41%
    06:00 +9°C° 0 mm 5 mps 722 mmHg 45%
    07:00 +11°C° 0 mm 6 mps 722 mmHg 40%
    08:00 +14°C° 0 mm 7 mps 723 mmHg 36%
    09:00 +16°C° 0 mm 8 mps 723 mmHg 32%
    10:00 +18°C° 0 mm 8 mps 723 mmHg 29%
    11:00 +21°C° 0 mm 8 mps 723 mmHg 26%
    12:00 +23°C° 0 mm 8 mps 722 mmHg 22%
    13:00 +23°C° 0 mm 8 mps 722 mmHg 21%
    14:00 +24°C° 0 mm 7 mps 722 mmHg 19%
    15:00 +23°C° 0 mm 7 mps 722 mmHg 21%
    16:00 +22°C° 0 mm 6 mps 722 mmHg 22%
    17:00 +21°C° 0 mm 5 mps 722 mmHg 23%
    18:00 +20°C° 0 mm 4 mps 722 mmHg 24%
    19:00 +19°C° 0 mm 4 mps 722 mmHg 27%
    20:00 +18°C° 0 mm 3 mps 722 mmHg 30%
    21:00 +18°C° 0 mm 2 mps 723 mmHg 28%
    22:00 +18°C° 0 mm 3 mps 723 mmHg 29%
    23:00 +18°C° 0 mm 3 mps 723 mmHg 31%

    Tomorrow, 21 September, Friday

    Time Temperature Precipitation Wind Pressure Humidity
    00:00 +17°C° 0 mm 3 mps 723 mmHg 33%
    01:00 +17°C° 0.3 mm 3 mps 723 mmHg 40%
    02:00 +16°C° 0.3 mm 3 mps 723 mmHg 48%
    03:00 +14°C° 0.3 mm 3 mps 723 mmHg 55%
    04:00 +14°C° 0.3 mm 4 mps 723 mmHg 57%
    05:00 +13°C° 0.3 mm 4 mps 723 mmHg 59%
    06:00 +13°C° 0.3 mm 5 mps 723 mmHg 61%
    07:00 +13°C° 1 mm 5 mps 724 mmHg 61%
    08:00 +13°C° 1 mm 5 mps 724 mmHg 60%
    09:00 +13°C° 1 mm 5 mps 725 mmHg 60%
    10:00 +14°C° 0.3 mm 5 mps 725 mmHg 58%
    11:00 +14°C° 0.3 mm 5 mps 725 mmHg 56%
    12:00 +15°C° 0.3 mm 5 mps 725 mmHg 55%
    13:00 +15°C° 0 mm 5 mps 724 mmHg 52%
    14:00 +16°C° 0 mm 5 mps 723 mmHg 49%
    15:00 +18°C° 0 mm 4 mps 723 mmHg 47%
    16:00 +18°C° 0 mm 4 mps 723 mmHg 46%
    17:00 +18°C° 0 mm 4 mps 723 mmHg 46%
    18:00 +18°C° 0 mm 3 mps 723 mmHg 46%
    19:00 +17°C° 0 mm 3 mps 723 mmHg 49%
    20:00 +16°C° 0 mm 3 mps 724 mmHg 51%
    21:00 +14°C° 0 mm 3 mps 724 mmHg 54%
    22:00 +14°C° 0 mm 3 mps 724 mmHg 57%
    23:00 +13°C° 0 mm 3 mps 724 mmHg 60%

    Day after tomorrow, 22 September, Saturday

    Time Temperature Precipitation Wind Pressure Humidity
    00:00 +13°C° 0 mm 3 mps 724 mmHg 62%
    01:00 +12°C° 0 mm 3 mps 724 mmHg 64%
    02:00 +13°C° 0 mm 2 mps 724 mmHg 67%
    03:00 +13°C° 0 mm 2 mps 724 mmHg 69%
    04:00 +12°C° 0 mm 3 mps 724 mmHg 67%
    05:00 +12°C° 0 mm 3 mps 724 mmHg 66%
    06:00 +11°C° 0 mm 3 mps 724 mmHg 65%
    07:00 +14°C° 0 mm 4 mps 724 mmHg 55%
    08:00 +16°C° 0 mm 5 mps 725 mmHg 45%
    09:00 +20°C° 0 mm 6 mps 725 mmHg 35%
    10:00 +22°C° 0 mm 6 mps 725 mmHg 32%
    11:00 +23°C° 0 mm 6 mps 725 mmHg 28%
    12:00 +26°C° 0 mm 6 mps 724 mmHg 25%
    13:00 +27°C° 0 mm 6 mps 724 mmHg 23%
    14:00 +28°C° 0 mm 5 mps 723 mmHg 22%
    15:00 +28°C° 0 mm 5 mps 722 mmHg 20%
    16:00 +28°C° 0 mm 4 mps 722 mmHg 21%
    17:00 +27°C° 0 mm 4 mps 723 mmHg 21%
    18:00 +26°C° 0 mm 3 mps 723 mmHg 22%
    19:00 +25°C° 0 mm 4 mps 723 mmHg 24%
    20:00 +23°C° 0 mm 4 mps 724 mmHg 25%
    21:00 +22°C° 0 mm 4 mps 724 mmHg 26%
    22:00 +21°C° 0 mm 5 mps 724 mmHg 27%
    23:00 +20°C° 0 mm 5 mps 724 mmHg 28%

    23 September, Sunday

    Time Temperature Precipitation Wind Pressure Humidity
    00:00 +20°C° 0 mm 5 mps 724 mmHg 28%
    01:00 +19°C° 0 mm 5 mps 724 mmHg 28%
    02:00 +17°C° 0 mm 5 mps 724 mmHg 28%
    03:00 +17°C° 0 mm 5 mps 723 mmHg 28%
    04:00 +16°C° 0 mm 5 mps 723 mmHg 28%
    05:00 +16°C° 0 mm 5 mps 724 mmHg 28%
    06:00 +15°C° 0 mm 5 mps 724 mmHg 28%
    07:00 +19°C° 0 mm 6 mps 724 mmHg 24%
    08:00 +21°C° 0 mm 7 mps 725 mmHg 20%
    09:00 +23°C° 0 mm 8 mps 725 mmHg 16%
    10:00 +26°C° 0 mm 7 mps 725 mmHg 15%
    11:00 +27°C° 0 mm 6 mps 724 mmHg 14%
    12:00 +29°C° 0 mm 6 mps 724 mmHg 14%
    13:00 +29°C° 0 mm 5 mps 723 mmHg 13%
    14:00 +30°C° 0 mm 4 mps 722 mmHg 13%
    15:00 +30°C° 0 mm 3 mps 722 mmHg 13%
    16:00 +29°C° 0 mm 3 mps 722 mmHg 14%
    17:00 +29°C° 0 mm 3 mps 722 mmHg 15%
    18:00 +28°C° 0 mm 3 mps 722 mmHg 16%
    19:00 +27°C° 0 mm 3 mps 722 mmHg 16%
    20:00 +25°C° 0 mm 3 mps 723 mmHg 17%
    21:00 +23°C° 0 mm 4 mps 723 mmHg 18%
    22:00 +22°C° 0 mm 4 mps 723 mmHg 18%
    23:00 +22°C° 0 mm 4 mps 723 mmHg 19%

    24 September, Monday

    Time Temperature Precipitation Wind Pressure Humidity
    00:00 +21°C° 0 mm 5 mps 723 mmHg 19%
    01:00 +20°C° 0 mm 5 mps 722 mmHg 20%
    02:00 +19°C° 0 mm 5 mps 722 mmHg 21%
    03:00 +19°C° 0 mm 5 mps 722 mmHg 21%
    04:00 +17°C° 0 mm 5 mps 722 mmHg 22%
    05:00 +18°C° 0 mm 4 mps 722 mmHg 23%
    06:00 +17°C° 0 mm 4 mps 722 mmHg 24%
    07:00 +19°C° 0 mm 5 mps 723 mmHg 21%
    08:00 +22°C° 0 mm 7 mps 723 mmHg 19%
    09:00 +24°C° 0 mm 8 mps 724 mmHg 16%
    10:00 +26°C° 0 mm 7 mps 724 mmHg 15%
    11:00 +28°C° 0 mm 7 mps 723 mmHg 14%
    12:00 +30°C° 0 mm 6 mps 723 mmHg 12%
    13:00 +30°C° 0 mm 6 mps 722 mmHg 12%
    14:00 +30°C° 0 mm 6 mps 721 mmHg 12%
    15:00 +32°C° 0 mm 5 mps 720 mmHg 12%
    16:00 +30°C° 0 mm 5 mps 721 mmHg 13%
    17:00 +29°C° 0 mm 5 mps 721 mmHg 14%
    18:00 +28°C° 0 mm 4 mps 721 mmHg 15%
    19:00 +27°C° 0 mm 4 mps 721 mmHg 17%
    20:00 +25°C° 0 mm 4 mps 722 mmHg 18%
    21:00 +23°C° 0 mm 5 mps 722 mmHg 20%
    22:00 +22°C° 0 mm 5 mps 722 mmHg 21%
    23:00 +21°C° 0 mm 5 mps 722 mmHg 23%

    25 September, Tuesday

    Time Temperature Precipitation Wind Pressure Humidity
    00:00 +21°C° 0 mm 5 mps 722 mmHg 24%
    01:00 +20°C° 0 mm 5 mps 721 mmHg 25%
    02:00 +19°C° 0 mm 5 mps 721 mmHg 27%
    03:00 +17°C° 0 mm 5 mps 721 mmHg 28%
    04:00 +17°C° 0 mm 5 mps 721 mmHg 29%
    05:00 +16°C° 0 mm 5 mps 721 mmHg 30%
    06:00 +16°C° 0 mm 5 mps 721 mmHg 31%
    07:00 +19°C° 0 mm 6 mps 722 mmHg 28%
    08:00 +21°C° 0 mm 7 mps 722 mmHg 24%
    09:00 +23°C° 0 mm 7 mps 723 mmHg 21%
    10:00 +26°C° 0 mm 7 mps 722 mmHg 19%
    11:00 +27°C° 0 mm 6 mps 722 mmHg 17%
    12:00 +29°C° 0 mm 5 mps 721 mmHg 15%
    13:00 +30°C° 0 mm 4 mps 720 mmHg 14%
    14:00 +30°C° 0 mm 4 mps 720 mmHg 13%
    15:00 +31°C° 0 mm 3 mps 719 mmHg 13%
    16:00 +30°C° 0 mm 3 mps 719 mmHg 13%
    17:00 +29°C° 0 mm 3 mps 719 mmHg 14%
    18:00 +28°C° 0 mm 3 mps 719 mmHg 15%
    19:00 +27°C° 0 mm 3 mps 720 mmHg 16%
    20:00 +26°C° 0 mm 3 mps 720 mmHg 16%
    21:00 +25°C° 0 mm 4 mps 720 mmHg 17%
    22:00 +23°C° 0 mm 4 mps 720 mmHg 18%
    23:00 +22°C° 0 mm 4 mps 720 mmHg 18%
    Show more